Location: Central Falls
(41.8900°N, 71.3929°W)
Time: 15:07:45
(UTC+00:00)

A-11 Canister half - Visible Passes

Search period start: 04 March 2024 00:00
Search period end: 14 March 2024 00:00
Orbit: 1512 x 1687 km, 47.2° (Epoch: 03 March)

Date Brightness Start Highest point End Pass type
(mag) Time Alt. Az. Time Alt. Az. Time Alt. Az.
04 Mar 10.7 05:39:13 22° ENE 05:39:13 22° ENE 05:42:07 10° ENE visible
04 Mar 9.2 07:37:23 64° NNW 07:37:53 65° N 07:47:46 10° E visible
04 Mar 9.1 09:35:35 19° WNW 09:43:36 89° SSW 09:53:25 10° ESE visible
05 Mar 10.9 05:17:22 17° ENE 05:17:22 17° ENE 05:19:06 10° ENE visible
05 Mar 9.3 07:15:33 63° NNE 07:15:33 63° NNE 07:24:44 10° E visible
05 Mar 9.1 09:13:44 24° WNW 09:20:36 88° NNE 09:30:26 10° ESE visible
06 Mar 11.1 04:55:33 12° ENE 04:55:33 12° ENE 04:56:05 10° ENE visible
06 Mar 9.5 06:53:44 56° NE 06:53:44 56° NE 07:01:41 10° E visible
06 Mar 9.1 08:51:55 31° WNW 08:57:34 86° NNE 09:07:27 10° ESE visible
07 Mar 9.8 06:31:58 46° ENE 06:31:58 46° ENE 06:38:38 10° E visible
07 Mar 9.1 08:30:09 40° WNW 08:34:33 83° NNE 08:44:27 10° ESE visible
07 Mar 9.5 10:29:49 10° WNW 10:39:07 45° SW 10:48:06 10° SSE visible
08 Mar 10.8 01:46:38 10° SSW 01:47:47 14° SSW 01:47:47 14° SSW visible
08 Mar 10.1 06:10:15 36° ENE 06:10:15 36° ENE 06:15:36 10° E visible
08 Mar 9.1 08:08:27 52° WNW 08:11:31 81° NNE 08:21:27 10° ESE visible
08 Mar 9.4 10:06:45 10° WNW 10:16:11 48° SW 10:25:19 10° SSE visible
09 Mar 10.3 01:23:54 10° SSW 01:27:16 21° S 01:27:16 21° S visible
09 Mar 10.4 05:48:36 27° ENE 05:48:36 27° ENE 05:52:33 10° ENE visible
09 Mar 9.1 07:46:49 66° NW 07:48:29 79° NNE 07:58:27 10° ESE visible
09 Mar 9.3 09:45:01 15° WNW 09:53:15 50° SW 10:02:30 10° SSE visible
10 Mar 9.9 01:01:11 10° S 01:06:51 28° SSE 01:06:51 28° SSE visible
10 Mar 10.8 03:03:39 10° SW 03:05:09 16° SW 03:05:09 16° SW visible
10 Mar 10.7 05:27:04 20° ENE 05:27:04 20° ENE 05:29:30 10° ENE visible
10 Mar 9.1 07:25:17 77° N 07:25:27 77° NNE 07:35:26 10° ESE visible
10 Mar 9.2 09:23:29 21° WNW 09:30:18 53° SW 09:39:40 10° SSE visible
11 Mar 9.7 00:38:30 10° S 00:46:27 30° SE 00:46:27 30° SE visible
11 Mar 10.2 02:40:40 10° SW 02:44:46 29° SW 02:44:46 29° SW visible
11 Mar 11.1 05:05:39 13° ENE 05:05:39 13° ENE 05:06:27 10° ENE visible
11 Mar 9.2 07:03:52 66° ENE 07:03:52 66° ENE 07:12:25 10° ESE visible
11 Mar 9.1 09:02:05 30° WNW 09:07:20 56° SW 09:16:50 10° SE visible
12 Mar 9.8 00:15:52 10° S 00:23:49 28° SE 00:26:04 26° ESE visible
12 Mar 9.5 02:17:42 10° SW 02:24:22 48° SW 02:24:22 48° SW visible
12 Mar11.304:44:21ENE04:44:21ENE04:22:40Wvisible
12 Mar 9.6 06:42:35 49° E 06:42:35 49° E 06:49:23 10° ESE visible
12 Mar 9.1 08:40:49 41° W 08:44:24 59° SW 08:53:58 10° SE visible
12 Mar 9.9 23:53:15 10° S 00:00:55 26° SE 00:05:36 19° E visible
13 Mar 9.0 01:54:46 10° SW 02:03:54 70° S 02:03:54 70° S visible
13 Mar 10.8 04:00:03 10° W 04:23:13 - ENE 04:02:12 19° W visible
13 Mar 10.1 06:21:28 34° E 06:21:28 34° E 06:26:20 10° E visible
13 Mar 9.0 08:19:43 56° WSW 08:21:25 62° SW 08:31:06 10° SE visible
13 Mar 10.2 10:18:29 10° W 10:24:53 19° SW 10:31:10 10° SSW visible
13 Mar 10.0 23:30:40 10° S 23:38:01 24° SE 23:45:03 11° E visible
